[[{"header":{"parameterUnit":"m.s-1","parameterCategory":1,"la1":30.2991,"la2":30.254,"lo1":-89.0895,"lo2":-89.0444,"dy":0.0017,"dx":0.0017,"nx":28,"ny":28,"refTime":"2023-06-28T21:00:00:Z","depth":0,"parameterNumber":2,"parameterNumberName":"U-component_of_WINDS"},"data":[0,0,0,0,0,0,0,0,0,0,0,0,0,0,0,0,0,0,0,0,0,0,0,0,0,0,0,0,0,0,0,0,0,0,0,0,0,0,0,0,0,0,0,0,0,0,0,0,0,0,0,0,0,0,0,0,0,0,1.815,1.8149,0,1.8053,1.8052,1.8051,1.7879,1.7875,1.7872,1.7869,1.7775,1.7775,1.7776,0,0,0,0,0,0,0,0,0,0,0,0,0,1.8192,1.8192,1.8151,1.8149,1.8148,1.8054,1.8052,1.8051,1.7879,1.7875,1.7871,1.7867,1.7775,1.7775,1.7776,0,0,0,0,0,0,0,0,0,0,0,0,0,1.8143,1.8192,1.8151,1.8051,1.8041,1.8054,1.8052,1.8051,1.788,1.7875,1.787,1.7865,1.7774,1.7775,1.7776,1.788,0,0,1.7779,1.7779,0,0,0,0,0,0,0,0,1.8146,1.8141,1.8067,1.8058,1.8047,1.7973,1.8032,1.7994,1.7881,1.7941,1.7869,1.7863,1.7845,1.784,1.7833,1.7876,1.7872,1.7779,1.7779,1.778,1.778,0,0,0,0,0,0,0,1.8149,1.8144,1.8112,1.8066,1.8054,1.8012,1.8,1.8024,1.7922,1.7936,1.7923,1.7913,1.7839,1.7832,1.7829,1.787,1.7779,1.7779,1.778,1.778,1.7994,1.7999,0,0,0,0,0,0,1.8167,1.8148,1.8115,1.8109,1.8085,1.8016,1.8002,1.8002,1.7921,1.7904,1.7918,1.7906,1.7833,1.7828,1.7825,1.7942,1.778,1.778,1.7781,1.7989,1.7995,1.8001,0,0,0,0,0,0,1.8168,1.8165,1.8119,1.8125,1.8116,1.802,1.8022,1.8002,1.7995,1.7908,1.7889,1.793,1.7829,1.7824,1.7867,1.7936,1.7781,1.7782,1.7983,1.7991,1.7998,1.8177,0,0,0,0,0,0,1.817,1.8167,1.8204,1.8127,1.8117,1.8162,1.8026,1.8004,1.7997,1.798,1.7914,1.7898,1.7825,1.7867,1.7868,1.7934,1.7782,1.7976,1.7987,1.7996,1.8164,1.8189,1.8211,0,0,0,0,0,1.8172,1.826,1.8207,1.8204,1.8161,1.8167,1.816,1.8072,1.8003,1.8041,1.7984,1.79,1.7928,1.7873,1.7873,1.7941,1.7972,1.7984,1.7995,1.8154,1.8184,1.8211,0,0,0,0,0,0,1.8349,1.8248,1.8188,1.8253,1.822,1.8137,1.8182,1.8108,1.8095,1.808,1.7973,1.796,1.8017,1.7983,1.7923,1.8037,1.7937,1.7949,1.8058,1.8086,1.8109,1.8117,1.7783,0,0,0,0,0,1.8395,1.8406,1.8318,1.8384,1.837,1.828,1.8278,1.8213,1.8175,1.816,1.8107,1.8075,1.8075,1.8079,1.8075,1.8158,1.8142,1.8204,1.8228,1.8248,1.826,1.8302,1.8329,1.8039,1.8039,1.8039,0,0,1.8492,1.8437,1.8451,1.8418,1.8384,1.84,1.8269,1.829,1.8301,1.8164,1.8201,1.8162,1.8118,1.8182,1.8207,1.8155,1.8336,1.8262,1.8279,1.828,1.8317,1.8344,1.8369,1.8047,1.8046,1.8044,0,0,1.8675,1.8635,1.8685,1.8654,1.8603,1.8543,1.8555,1.8484,1.8452,1.8487,1.8384,1.8397,1.8401,1.8374,1.8361,1.8534,1.8457,1.8536,1.866,1.8702,1.8725,1.8744,1.8807,1.8831,1.8548,1.8549,1.8549,0,1.8801,1.8819,1.8721,1.8749,1.8738,1.8612,1.8663,1.8638,1.8591,1.8587,1.8528,1.8531,1.8493,1.8549,1.8591,1.8584,1.8596,1.8544,1.8729,1.8748,1.8765,1.8823,1.8847,1.8559,1.8558,1.8557,1.8556,0,1.8977,1.8991,1.9038,1.8993,1.8987,1.9027,1.8937,1.8943,1.8878,1.8825,1.8863,1.8813,1.8796,1.8805,1.8743,1.8853,1.8822,1.8748,1.8645,1.8804,1.8857,1.8879,1.8573,1.857,1.8567,1.8564,0,0,1.9269,1.9169,1.9188,1.9167,1.9102,1.9112,1.9147,1.9129,1.9137,1.9109,1.9136,1.9142,1.9073,1.9058,1.8992,1.9029,1.9171,1.895,1.8948,1.8994,1.929,1.9346,1.9374,1.9119,1.9122,1.9126,1.9293,0,1.9439,1.9491,1.9404,1.9477,1.9489,1.937,1.94,1.9365,1.9316,1.9321,1.9266,1.9273,1.9181,1.9171,1.9202,1.9147,1.9229,1.9134,1.9145,1.9146,1.916,1.9401,1.9461,1.9622,1.9314,1.9317,1.9319,0,1.9644,1.9624,1.9698,1.9629,1.9631,1.966,1.9637,1.9642,1.96,1.9562,1.9546,1.9467,1.9498,1.9398,1.944,1.9377,1.9376,1.935,1.9354,1.9353,1.9243,1.9407,1.9671,1.9696,1.9351,1.9349,1.9346,0,1.9851,1.9843,1.9885,1.9871,1.9791,1.9814,1.9783,1.9736,1.9731,1.9712,1.9708,1.9693,1.9686,1.9677,1.9597,1.9532,1.9649,1.9542,1.9619,1.9622,1.965,1.9649,1.9919,1.9649,1.9648,1.9648,1.9647,0,2.005,2.01,1.9977,2.0004,2.0057,1.9957,2.0013,1.9969,1.9929,1.9946,1.9843,1.9862,1.9754,1.9762,1.97,1.9744,1.9742,1.9712,1.9696,1.9722,1.9726,1.9721,1.9708,1.9654,1.9653,1.9652,1.9651,0,2.029,2.021,2.0249,2.017,2.0151,2.0194,2.0127,2.015,2.0093,2.0117,2.0117,2.0029,2.0033,1.9952,1.994,1.9898,1.9971,1.9933,1.9985,1.9973,2.0055,2.0049,2.0331,2.0363,2.0073,2.0076,2.0078,0,2.0423,2.0458,2.0383,2.0386,2.0359,2.0366,2.036,2.0264,2.0263,2.0218,2.0246,2.0241,2.0232,2.0244,2.018,2.0171,2.0133,2.0232,2.0131,2.0157,2.0135,2.0135,2.0138,2.0254,2.0258,2.0261,2.0263,0,2.0667,2.0625,2.062,2.0602,2.0597,2.0579,2.0553,2.0562,2.0457,2.0461,2.0463,2.0456,2.0443,2.044,2.0418,2.0386,2.0309,2.0295,2.0313,2.0341,2.0369,2.0356,2.0044,2.029,2.0287,2.0285,2.0284,2.0283,2.0857,2.0883,2.0835,2.0833,2.0803,2.0782,2.0799,2.0745,2.0744,2.0725,2.0668,2.068,2.0638,2.06,2.0576,2.0585,2.0536,2.0561,2.0568,2.0576,2.0592,2.0368,2.0581,2.058,2.0579,2.0578,2.0578,0,2.1097,2.1059,2.1058,2.1025,2.1025,2.0949,2.0917,2.0922,2.0933,2.0899,2.0892,2.0895,2.0891,2.0827,2.0816,2.0836,2.08,2.0837,2.0835,2.0829,2.0635,2.0622,2.0866,2.0866,2.0866,2.0866,2.0866,2.0866,2.1221,2.1261,2.1214,2.124,2.1202,2.1211,2.12,2.1181,2.1153,2.116,2.1156,2.1114,2.1069,2.1054,2.1048,2.1029,2.1031,2.108,2.105,2.087,2.0842,2.0816,2.0802,2.1081,2.1081,2.1242,2.1244,2.1245]},{"header":{"parameterUnit":"m.s-1","parameterCategory":1,"la1":30.2991,"la2":30.254,"lo1":-89.0895,"lo2":-89.0444,"dy":0.0017,"dx":0.0017,"nx":28,"ny":28,"refTime":"2023-06-28T21:00:00:Z","depth":0,"parameterNumber":3,"parameterNumberName":"V-component_of_WINDS"},"data":[0,0,0,0,0,0,0,0,0,0,0,0,0,0,0,0,0,0,0,0,0,0,0,0,0,0,0,0,0,0,0,0,0,0,0,0,0,0,0,0,0,0,0,0,0,0,0,0,0,0,0,0,0,0,0,0,0,0,1.6743,1.6744,0,1.6821,1.6822,1.6823,1.6799,1.6797,1.6795,1.6794,1.6875,1.6879,1.6883,0,0,0,0,0,0,0,0,0,0,0,0,0,1.6571,1.6575,1.6743,1.6744,1.6745,1.6821,1.6822,1.6823,1.6799,1.6797,1.6795,1.6793,1.6874,1.6879,1.6883,0,0,0,0,0,0,0,0,0,0,0,0,0,1.6647,1.6576,1.6742,1.6742,1.6742,1.6821,1.6822,1.6823,1.6799,1.6797,1.6794,1.6792,1.6873,1.6878,1.6884,1.6968,0,0,1.6901,1.6903,0,0,0,0,0,0,0,0,1.6643,1.6654,1.6741,1.6742,1.6743,1.6798,1.6792,1.6872,1.68,1.6778,1.6794,1.6791,1.6852,1.6859,1.6879,1.6972,1.6975,1.6901,1.6905,1.6907,1.6908,0,0,0,0,0,0,0,1.6638,1.665,1.6774,1.6742,1.6743,1.6737,1.6745,1.6807,1.6828,1.678,1.6778,1.6788,1.6852,1.6874,1.6881,1.6976,1.6901,1.6906,1.6909,1.6912,1.7141,1.7143,0,0,0,0,0,0,1.6632,1.6646,1.6771,1.6776,1.6686,1.6742,1.6751,1.6783,1.6827,1.6831,1.679,1.6786,1.6865,1.6874,1.6883,1.6985,1.6907,1.6912,1.6915,1.7138,1.7141,1.7144,0,0,0,0,0,0,1.6628,1.6643,1.6768,1.6711,1.6726,1.6748,1.6783,1.6785,1.6807,1.6835,1.6838,1.6808,1.6864,1.6876,1.6947,1.6987,1.6915,1.692,1.7135,1.7139,1.7143,1.7188,0,0,0,0,0,0,1.6624,1.6642,1.6675,1.6712,1.6729,1.683,1.6786,1.6789,1.6817,1.6813,1.6853,1.6857,1.6863,1.6938,1.6952,1.6994,1.6924,1.7131,1.7137,1.7141,1.7183,1.7193,1.7202,0,0,0,0,0,1.6618,1.6685,1.6677,1.6692,1.677,1.6833,1.6843,1.6847,1.682,1.6853,1.687,1.6856,1.698,1.6946,1.6961,1.7005,1.7129,1.7135,1.7141,1.7179,1.7191,1.7202,0,0,0,0,0,0,1.6654,1.669,1.6681,1.6762,1.6794,1.6829,1.687,1.686,1.6901,1.6896,1.69,1.6909,1.6982,1.7,1.6962,1.7088,1.705,1.706,1.7074,1.7086,1.7095,1.709,1.6929,0,0,0,0,0,1.6671,1.6718,1.6747,1.6816,1.6833,1.6849,1.6876,1.6876,1.691,1.6924,1.6946,1.698,1.7026,1.7057,1.7101,1.7185,1.7193,1.7222,1.7231,1.7239,1.7248,1.7293,1.7306,1.7165,1.7164,1.7164,0,0,1.6707,1.6733,1.6763,1.6824,1.6849,1.6898,1.686,1.6914,1.6951,1.6932,1.7001,1.7018,1.7055,1.7133,1.7168,1.715,1.7288,1.7247,1.7253,1.7258,1.7301,1.7314,1.7326,1.7169,1.7168,1.7167,0,0,1.6799,1.6823,1.6883,1.6908,1.6946,1.6956,1.697,1.7005,1.7015,1.7084,1.7071,1.7114,1.7194,1.7221,1.7245,1.7344,1.7333,1.7358,1.7408,1.7452,1.7463,1.7473,1.7509,1.7521,1.7366,1.7366,1.7366,0,1.684,1.6913,1.6915,1.697,1.6997,1.698,1.7041,1.7065,1.7116,1.7135,1.7113,1.7212,1.7237,1.732,1.7344,1.7364,1.738,1.7355,1.7461,1.7471,1.748,1.7515,1.7528,1.7369,1.7369,1.7369,1.7368,0,1.6962,1.7012,1.7056,1.7104,1.7136,1.7193,1.7203,1.7235,1.7232,1.7243,1.7313,1.734,1.739,1.7409,1.7407,1.7492,1.748,1.746,1.7422,1.7497,1.7529,1.7542,1.7373,1.7372,1.7371,1.7371,0,0,1.7081,1.7127,1.7144,1.7165,1.7204,1.7243,1.7299,1.7346,1.7374,1.7408,1.7455,1.7522,1.7503,1.753,1.7531,1.7569,1.7646,1.7544,1.7545,1.7563,1.7741,1.7757,1.7772,1.7637,1.764,1.7642,1.7738,0,1.7177,1.7275,1.7277,1.7367,1.7413,1.7397,1.7446,1.7475,1.7487,1.7528,1.754,1.7588,1.7559,1.7576,1.7613,1.7629,1.7682,1.7622,1.7682,1.7684,1.7675,1.7789,1.7807,1.7896,1.7751,1.7753,1.7755,0,1.7302,1.734,1.7434,1.7465,1.7485,1.7528,1.7571,1.761,1.7643,1.7648,1.7678,1.7672,1.7728,1.7687,1.7765,1.7724,1.7749,1.776,1.7763,1.7771,1.7725,1.7801,1.7925,1.7939,1.7774,1.7773,1.7771,0,1.738,1.7454,1.752,1.7539,1.7577,1.7607,1.7625,1.7654,1.7682,1.7719,1.7737,1.778,1.7805,1.7838,1.7844,1.7813,1.7922,1.7882,1.7929,1.7929,1.7954,1.7953,1.8086,1.7968,1.7967,1.7967,1.7967,0,1.7488,1.7547,1.7556,1.7597,1.7661,1.7662,1.7726,1.7741,1.7767,1.781,1.7798,1.7839,1.7843,1.7885,1.789,1.7954,1.7964,1.7971,1.7972,1.7973,1.7972,1.799,1.7985,1.7971,1.797,1.7969,1.7969,0,1.7588,1.7596,1.7667,1.7696,1.7704,1.7751,1.7776,1.7815,1.7824,1.7878,1.7891,1.7906,1.7955,1.7963,1.8021,1.8024,1.81,1.8094,1.809,1.8089,1.8136,1.8132,1.8287,1.8308,1.8174,1.8176,1.8177,0,1.7657,1.7701,1.7734,1.7762,1.778,1.7825,1.7853,1.7854,1.7884,1.7923,1.7957,1.8004,1.8042,1.812,1.8136,1.818,1.8175,1.8226,1.8182,1.8181,1.8177,1.8175,1.818,1.8236,1.8237,1.8238,1.8239,0,1.7778,1.7779,1.782,1.7861,1.7895,1.7928,1.7959,1.7982,1.7987,1.8021,1.807,1.8099,1.8157,1.8204,1.8246,1.8264,1.8253,1.8252,1.8266,1.8269,1.8265,1.8268,1.8114,1.825,1.8248,1.8248,1.8247,1.8247,1.7865,1.7904,1.7933,1.7978,1.8001,1.803,1.8067,1.808,1.8121,1.8168,1.8166,1.822,1.8249,1.8305,1.8326,1.8368,1.8351,1.8371,1.8376,1.8381,1.8386,1.8256,1.8375,1.8375,1.8375,1.8374,1.8374,0,1.7987,1.8004,1.8045,1.8089,1.8124,1.8108,1.8141,1.8172,1.8219,1.8247,1.8284,1.834,1.8385,1.8404,1.8448,1.8478,1.8474,1.8489,1.8488,1.8493,1.8398,1.8382,1.8492,1.8492,1.8492,1.8492,1.8492,1.8492,1.8055,1.8119,1.8123,1.8198,1.8215,1.8267,1.8288,1.8314,1.8336,1.8399,1.8436,1.8447,1.8471,1.8517,1.8557,1.8561,1.8579,1.8597,1.8599,1.8511,1.8499,1.8488,1.8473,1.8601,1.8601,1.8691,1.8692,1.8692]}]]